Simultaneous Nadir Overpasses (SNOs) Predictions

Prediction of SNOs between AQUA and METOP-B Satellite Orbit:

Table of predicted SNOs for the next 14.0 days since TLE Epoch: 2/5/2022
Index Date (AQUA) Time (AQUA) Lat,Lon (AQUA) SZA (AQUA ) Date (METOP-B) Time (METOP-B) Lat,Lon (METOP-B) SZA (METOP-B ) Distance(km) Time Diff (sec)
1 02/05/2022 17:28:39 73.32, -86.73 89.15 02/05/2022 17:27:31 73.25, -88.93 89.20 70.90 68
2 02/05/2022 18:18:15 -73.86, 79.75 90.28 02/05/2022 18:18:01 -73.85, 79.77 90.28 1.05 14
3 02/05/2022 19:07:44 73.94,-112.80 89.81 02/05/2022 19:08:39 73.93,-112.71 89.78 3.45 55
4 02/08/2022 13:02:58 73.71, -21.09 88.69 02/08/2022 13:01:45 73.65, -21.62 88.68 17.45 73
5 02/08/2022 13:52:27 -73.88, 146.17 91.13 02/08/2022 13:52:23 -73.86, 146.19 91.15 2.43 4
6 02/08/2022 14:41:55 73.91, -46.28 88.90 02/08/2022 14:43:01 73.93, -46.30 88.90 1.77 66
7 02/11/2022 08:37:11 73.81, 45.14 87.89 02/11/2022 08:36:04 73.80, 45.13 87.90 1.27 67
8 02/11/2022 09:26:38 -73.88,-147.36 92.05 02/11/2022 09:26:45 -73.86,-147.40 92.06 2.20 7
9 02/11/2022 10:16:09 74.07, 19.84 88.16 02/11/2022 10:17:20 74.07, 20.46 88.12 18.95 71
10 02/14/2022 04:11:21 73.83, 111.55 86.98 02/14/2022 04:10:24 73.84, 111.63 86.99 2.50 57
11 02/14/2022 05:00:48 -73.90, -80.95 92.96 02/14/2022 05:01:05 -73.90, -80.89 92.97 1.98 17
12 02/14/2022 05:50:26 74.46, 85.39 87.64 02/14/2022 05:51:33 74.46, 87.84 87.53 72.95 67
13 02/16/2022 23:45:31 73.84, 178.01 86.01 02/16/2022 23:44:46 73.82, 178.00 86.01 1.52 45
14 02/17/2022 00:34:58 -73.90, -14.49 93.93 02/17/2022 00:35:27 -73.89, -14.51 93.95 1.29 29



Historial Predications of SNOs between AQUA and METOP-B
